Temp
10 10 10 10 10 10 10 10 10 10 10 10 10 10 10 10 10 10 10 10 10 10 10 10 10 10 10 10 10 10 10 10 10 10 10 10 10 10 10 10 10 10
10 10 10 10 10 10 10 10 10 10 10 10 10 10 10 10 10 10 10 10 10 10 10 10 10 10 10 10 10 10 10 10 10 10 10 10 10 10 10 10 10 10
11 11 10 10 10 10 10 10 10 10 10 10 10 10 10 10 10 10 10 10 10 10 10 10 10 10 10 10 10 10 10 10 10 10 10 10 10 10 10 10 10 10
11 11 11 10 10 10 10 10 10 10 10 10 10 10 10 10 10 10 10 11 11 11 10 10 10 10 11 11 10 10 10 10 10 10 10 10 10 10 10 10 10 10
11 11 11 11 11 10 10 10 10 10 10 10 10 10 10 10 10 10 10 11 11 11 11 11 10 10 11 11 11 10 10 10 10 10 10 10 10 10 10 10 10 10
11 11 11 11 11 11 11 11 10 10 10 10 10 10 10 10 10 10 10 10 11 11 11 11 10 11 10 10 11 11 10 10 10 10 10 10 10 10 10 10 10 10
11 11 11 11 11 11 11 11 11 11 11 11 11 10 10 10 10 10 10 10 10 10 11 11 10 10 10 10 11 11 11 10 10 10 10 10 10 10 10 10 10 10
11 11 11 11 11 11 11 11 11 11 11 11 11 11 11 10 10 10 11 11 11 10 10 10 10 10 10 10 11 11 11 11 10 10 10 11 11 11 10 10 10 11
11 11 11 11 11 11 11 11 11 11 11 11 11 11 11 11 11 11 11 11 11 11 11 10 10 11 10 11 11 11 11 11 11 10 10 11 11 11 11 11 11 11
11 11 11 11 11 11 11 11 11 11 11 11 11 11 11 11 11 11 11 11 11 11 11 11 11 11 11 11 11 11 11 11 11 11 11 11 11 11 11 11 11 11
11 11 11 11 11 11 11 11 11 11 11 11 11 11 11 11 11 11 11 11 11 11 11 11 11 11 11 11 11 10 11 11 11 11 11 11 11 11 11 11 11 11
11 11 11 11 11 11 11 11 11 11 11 11 11 11 11 11 11 11 11 11 11 11 11 11 11 11 11 11 11 11 11 10 10 11 11 11 11 11 11 11 11 11
11 11 11 11 11 11 11 11 11 11 11 11 11 11 11 11 11 11 11 11 11 11 11 11 11 11 11 11 11 11 11 11 11 11 10 11 11 11 11 11 11 11
11 11 11 11 11 11 11 11 11 11 11 11 11 11 11 11 11 11 11 11 11 11 11 11 11 11 11 11 11 11 11 11 11 11 11 11 11 11 11 11 11 11
11 11 11 11 10 11 11 11 11 11 11 11 11 11 11 11 11 11 11 11 11 11 11 11 11 11 11 11 11 11 11 11 11 11 10 11 11 11 11 11 11 11
11 11 11 10 10 11 11 11 11 11 11 11 11 11 11 11 11 11 11 11 11 11 11 11 11 11 11 11 11 11 11 11 11 11 11 11 11 11 11 11 11 11
11 11 11 11 11 11 11 11 11 11 11 11 11 11 11 11 11 11 11 11 11 11 11 11 11 11 11 11 11 11 11 11 11 11 11 11 11 11 11 11 11 11
11 11 11 11 11 11 11 11 10 11 11 11 11 11 11 11 11 11 11 11 11 11 11 11 11 11 11 12 11 11 11 11 11 11 11 11 11 11 11 11 11 11
10 11 10 10 10 11 11 11 10 10 10 10 11 11 11 11 11 11 11 11 11 11 11 11 11 11 11 11 12 11 11 11 11 11 11 11 11 11 11 11 11 11
10 10 10 10 10 10 10 10 10 10 10 10 10 10 11 11 11 11 11 11 11 11 11 11 11 11 11 11 11 11 11 11 11 11 11 11 11 11 12 12 12 12
10 10 10 10 10 10 10 10 10 10 10 10 9 9 9 10 11 11 11 11 11 11 11 11 11 11 11 11 12 11 11 11 11 11 11 11 11 12 12 12 12 12
10 10 10 10 9 10 10 10 10 10 10 10 10 9 9 9 9 10 10 11 11 11 11 11 12 12 11 12 12 12 11 11 11 11 11 11 11 12 12 12 12 12
10 10 10 10 9 9 10 10 10 10 10 10 10 10 10 10 10 10 11 12 12 12 12 12 12 12 12 12 12 12 12 11 11 11 11 11 11 12 12 12 12 12
10 10 9 10 10 10 10 10 10 10 10 10 10 10 11 11 11 11 11 12 12 12 12 12 12 12 12 12 12 12 12 12 11 11 11 11 12 12 12 12 13 13
10 9 9 9 9 9 10 10 10 10 10 10 10 10 11 11 11 11 11 11 11 11 12 12 12 12 12 12 12 12 12 12 12 12 12 12 12 12 12 12 13 13
9 9 9 9 9 10 10 10 10 10 10 10 10 11 11 11 11 11 11 11 11 11 11 12 12 12 12 12 12 12 12 12 12 12 12 12 12 12 13 13 13 13
Height
3226 3227 3228 3230 3231 3233 3234 3235 3237 3238 3239 3240 3242 3243 3244 3245 3245 3246 3247 3247 3248 3249 3249 3249 3250 3250 3251 3251 3252 3252 3253 3254 3255 3255 3256 3256 3257 3257 3258 3259 3259 3260
3225 3226 3227 3229 3230 3232 3233 3234 3236 3237 3238 3239 3241 3242 3243 3244 3245 3246 3247 3247 3248 3249 3249 3249 3250 3251 3251 3252 3252 3252 3253 3254 3254 3255 3256 3256 3257 3257 3258 3258 3259 3260
3224 3225 3227 3228 3229 3231 3232 3233 3235 3236 3237 3239 3240 3241 3242 3243 3244 3245 3246 3247 3248 3248 3249 3249 3250 3251 3251 3252 3252 3252 3253 3254 3254 3255 3256 3257 3257 3257 3258 3258 3259 3260
3223 3224 3225 3227 3228 3229 3231 3232 3234 3235 3236 3238 3239 3240 3241 3243 3244 3244 3245 3246 3247 3248 3248 3249 3250 3250 3251 3252 3252 3252 3253 3254 3254 3255 3256 3257 3257 3258 3258 3258 3259 3259
3222 3223 3224 3226 3227 3228 3230 3231 3233 3234 3235 3237 3238 3239 3240 3242 3243 3243 3244 3245 3246 3247 3248 3249 3249 3250 3251 3251 3252 3252 3252 3254 3254 3255 3256 3256 3257 3258 3258 3258 3259 3259
3221 3222 3223 3224 3226 3227 3229 3230 3231 3233 3234 3235 3237 3238 3239 3240 3242 3243 3244 3245 3245 3246 3247 3248 3249 3249 3250 3251 3251 3252 3253 3253 3254 3255 3255 3256 3257 3257 3258 3258 3259 3259
3219 3221 3222 3223 3224 3226 3227 3228 3230 3231 3233 3234 3235 3237 3238 3239 3240 3241 3243 3244 3245 3245 3246 3247 3248 3249 3249 3250 3251 3252 3252 3253 3254 3254 3255 3256 3256 3257 3257 3258 3258 3259
3218 3220 3221 3222 3223 3224 3225 3227 3228 3230 3231 3233 3234 3235 3236 3238 3239 3240 3241 3243 3243 3244 3245 3246 3247 3247 3248 3249 3250 3251 3252 3252 3253 3254 3254 3255 3256 3256 3257 3258 3258 3258
3216 3218 3219 3221 3222 3223 3224 3225 3226 3228 3229 3231 3232 3234 3235 3236 3237 3239 3240 3241 3242 3243 3244 3245 3245 3246 3247 3248 3249 3250 3251 3251 3252 3253 3254 3254 3255 3256 3256 3257 3257 3258
3214 3216 3217 3219 3220 3221 3222 3223 3225 3226 3227 3229 3230 3232 3233 3234 3235 3237 3238 3239 3241 3242 3243 3243 3244 3245 3246 3247 3248 3248 3249 3250 3251 3252 3252 3253 3254 3255 3255 3256 3256 3257
3213 3214 3215 3217 3218 3219 3221 3222 3223 3224 3225 3227 3228 3229 3231 3232 3233 3235 3236 3237 3239 3240 3241 3242 3243 3244 3245 3245 3246 3247 3248 3249 3250 3250 3251 3252 3253 3253 3254 3255 3255 3256
3211 3213 3214 3215 3216 3217 3219 3220 3221 3222 3223 3225 3226 3227 3228 3230 3231 3232 3234 3235 3237 3238 3239 3240 3241 3242 3243 3244 3245 3246 3247 3247 3248 3249 3250 3250 3251 3252 3253 3253 3254 3254
3209 3211 3212 3214 3215 3216 3217 3219 3220 3220 3221 3222 3223 3225 3226 3227 3228 3230 3231 3233 3234 3236 3237 3238 3239 3240 3241 3243 3244 3244 3245 3246 3246 3247 3248 3249 3250 3250 3251 3252 3252 3253
3207 3209 3210 3212 3213 3214 3215 3216 3217 3218 3219 3220 3221 3222 3224 3225 3226 3227 3229 3231 3232 3233 3234 3235 3236 3238 3239 3240 3241 3242 3243 3244 3245 3246 3246 3247 3248 3248 3249 3250 3250 3251
3204 3206 3207 3208 3210 3211 3213 3214 3215 3216 3217 3218 3219 3220 3221 3223 3224 3225 3226 3228 3229 3230 3231 3233 3234 3235 3236 3237 3239 3240 3241 3242 3243 3244 3245 3245 3246 3246 3247 3247 3248 3249
3201 3202 3203 3204 3205 3207 3210 3212 3213 3214 3215 3216 3217 3218 3219 3220 3221 3222 3224 3225 3226 3228 3229 3230 3231 3232 3233 3235 3236 3238 3239 3240 3241 3242 3243 3243 3244 3244 3245 3245 3246 3247
3197 3198 3200 3200 3202 3204 3206 3208 3209 3211 3213 3214 3215 3216 3217 3218 3219 3220 3221 3223 3224 3225 3226 3227 3228 3229 3230 3232 3234 3235 3236 3238 3238 3239 3240 3241 3241 3242 3243 3243 3244 3244
3192 3194 3195 3197 3199 3202 3203 3203 3204 3206 3208 3211 3213 3214 3215 3216 3217 3218 3219 3221 3222 3223 3223 3224 3226 3227 3228 3229 3231 3233 3234 3235 3236 3236 3237 3238 3239 3240 3240 3241 3242 3242
3188 3189 3192 3194 3196 3199 3200 3201 3203 3204 3204 3206 3209 3212 3213 3214 3215 3216 3217 3218 3219 3220 3221 3222 3223 3224 3225 3226 3228 3230 3231 3232 3233 3233 3234 3235 3235 3236 3237 3238 3239 3240
3185 3186 3189 3191 3192 3194 3196 3198 3201 3203 3204 3205 3205 3207 3209 3212 3213 3214 3215 3216 3217 3218 3219 3220 3222 3222 3223 3224 3225 3227 3228 3229 3230 3230 3231 3231 3232 3233 3234 3235 3235 3236
3183 3185 3186 3187 3187 3190 3193 3195 3198 3200 3202 3205 3205 3205 3206 3207 3209 3210 3212 3214 3215 3216 3217 3218 3219 3220 3221 3221 3223 3224 3226 3226 3227 3227 3227 3227 3228 3229 3230 3231 3232 3233
3181 3182 3183 3183 3185 3188 3191 3193 3195 3196 3198 3201 3205 3207 3206 3205 3204 3204 3207 3210 3212 3213 3214 3215 3216 3217 3218 3219 3220 3222 3222 3223 3223 3223 3224 3224 3225 3226 3227 3228 3229 3229
3180 3180 3180 3181 3183 3185 3187 3189 3191 3193 3196 3198 3202 3204 3205 3205 3205 3205 3205 3207 3209 3210 3211 3212 3213 3214 3215 3216 3218 3218 3219 3219 3220 3220 3220 3221 3221 3222 3223 3224 3225 3226
3177 3177 3177 3178 3181 3182 3183 3186 3188 3191 3194 3195 3197 3199 3200 3201 3203 3203 3204 3205 3206 3206 3207 3208 3209 3211 3212 3213 3215 3215 3216 3216 3217 3217 3217 3217 3218 3219 3220 3221 3221 3223
3174 3173 3174 3175 3178 3179 3180 3182 3186 3188 3191 3192 3193 3194 3195 3196 3197 3198 3199 3201 3202 3204 3204 3204 3206 3207 3208 3209 3211 3212 3213 3213 3214 3213 3214 3214 3215 3216 3217 3217 3218 3219
3171 3171 3171 3172 3175 3178 3179 3180 3182 3184 3186 3188 3189 3190 3190 3191 3193 3195 3196 3197 3199 3200 3201 3202 3202 3203 3204 3205 3207 3209 3210 3210 3210 3210 3210 3212 3212 3213 3213 3214 3215 3216
Wind_Speed
18 18 18 17 16 16 16 16 15 14 13 12 11 11 11 10 10 9 8 7 6 6 6 6 6 7 7 7 7 7 7 7 7 7 7 7 8 8 8 7 7 7
18 18 18 17 17 17 17 17 16 16 15 14 13 12 12 12 11 10 9 8 7 6 6 6 6 7 7 7 7 7 7 6 7 7 7 7 7 8 8 8 7 7
18 17 18 17 17 17 17 18 17 17 16 15 15 13 13 12 12 12 11 9 8 7 7 7 7 7 7 7 7 7 7 7 7 7 7 7 7 8 8 8 8 7
18 17 18 18 18 18 18 18 18 18 17 16 16 15 14 13 13 13 12 11 10 8 8 7 7 7 7 7 7 7 7 7 7 8 7 7 7 8 8 8 8 7
18 18 18 18 19 19 18 19 19 19 18 17 17 16 15 14 14 13 13 12 11 10 9 8 8 8 7 7 7 7 7 7 8 8 8 8 7 8 8 8 8 7
19 19 19 19 19 19 19 19 19 19 19 19 18 17 17 16 15 14 13 13 12 11 10 10 9 9 8 8 8 7 7 8 8 8 8 8 7 8 8 7 7 7
19 20 20 20 20 20 20 21 20 20 20 20 20 19 18 17 17 16 14 14 13 12 12 11 11 11 10 9 9 8 8 8 8 8 8 8 7 7 7 7 7 7
20 20 20 20 20 20 21 21 21 21 21 21 20 20 19 19 18 18 16 16 15 14 13 12 12 12 11 11 10 10 9 9 9 9 9 9 8 8 8 7 7 7
22 21 21 21 21 21 21 21 21 21 21 21 21 21 21 20 20 19 18 18 17 15 14 14 13 13 12 12 12 11 11 10 10 10 10 10 9 9 9 8 8 7
24 23 22 22 22 22 22 21 21 22 22 21 21 21 22 21 21 21 20 20 19 17 16 15 14 13 13 13 13 12 12 12 11 12 11 11 11 10 10 10 9 9
25 25 24 24 23 22 22 22 22 23 23 22 23 22 23 23 22 23 22 21 20 19 17 16 16 15 15 14 14 13 14 13 13 13 13 12 12 12 11 11 11 10
27 27 26 25 24 22 22 23 23 24 23 23 24 24 23 23 23 24 23 22 21 21 20 19 18 18 17 17 16 15 15 15 14 14 14 14 13 13 13 12 12 12
27 28 27 27 26 24 24 23 24 24 24 24 25 25 25 24 24 24 23 23 23 22 22 21 21 20 19 19 19 18 18 17 16 15 15 15 14 14 14 14 14 14
28 29 28 29 28 27 25 25 25 24 24 25 25 25 25 25 25 25 24 24 24 24 24 24 23 23 22 21 21 21 21 20 20 19 18 17 17 16 16 16 16 15
29 30 31 32 31 29 28 28 28 26 25 26 25 25 25 25 25 25 24 24 24 25 25 26 25 25 24 23 23 23 23 23 22 22 21 20 20 19 19 19 18 18
29 30 32 33 32 31 31 31 30 29 28 27 26 25 26 26 26 25 25 25 25 25 26 26 27 26 25 25 24 24 24 24 24 24 23 23 23 22 22 22 21 21
31 32 33 33 32 33 34 34 33 32 32 30 29 28 27 27 27 26 26 26 25 25 25 26 27 27 26 26 25 25 25 24 25 25 25 25 25 25 25 24 24 24
31 34 35 35 34 34 36 36 35 35 35 34 32 31 30 29 29 28 27 27 26 25 25 25 26 26 26 26 25 25 26 26 26 26 26 26 26 26 26 26 26 26
31 34 35 36 36 35 36 37 36 36 36 35 34 34 33 31 31 30 29 29 28 27 26 26 26 26 27 26 24 24 25 27 28 28 28 28 28 28 28 27 27 27
32 33 34 36 37 37 37 37 37 37 37 36 34 34 35 35 33 32 32 31 31 30 29 28 27 27 27 26 24 22 23 25 27 29 30 30 30 30 29 28 28 28
34 33 34 36 37 37 37 36 36 36 37 38 34 31 32 35 36 35 34 33 32 31 31 30 28 28 28 27 24 22 23 25 27 29 30 30 30 30 30 29 28 28
36 36 36 36 36 36 37 37 37 37 37 38 37 33 31 32 34 35 34 32 32 32 32 31 29 28 28 27 25 23 24 26 28 29 30 31 31 30 29 28 28 27
36 36 37 36 35 36 37 38 38 38 37 36 36 36 34 33 32 31 30 31 31 31 32 32 30 29 28 26 25 24 25 26 28 30 31 31 31 29 29 28 27 27
34 34 35 37 35 35 36 38 37 36 35 35 35 35 35 34 33 32 31 30 30 29 30 31 30 30 28 27 26 25 26 27 28 29 31 31 30 29 29 28 27 26
31 31 32 35 36 36 36 36 37 37 35 34 35 35 34 34 34 33 33 33 31 31 31 30 29 29 29 28 27 26 27 28 29 30 31 31 30 29 29 28 27 26
24 26 27 29 32 35 37 36 36 37 37 37 37 36 35 35 33 32 32 33 33 33 33 31 29 29 30 30 28 27 28 29 30 31 31 30 30 29 29 28 27 26
Wind_Direction
207 210 211 212 210 205 203 202 203 202 197 192 194 197 197 197 195 194 197 197 197 194 185 176 175 175 173 170 169 170 175 180 179 182 183 176 168 165 165 168 170 171
208 211 213 214 213 209 207 206 206 204 201 197 198 201 201 204 204 200 199 199 200 201 197 188 185 186 184 177 173 171 174 174 169 175 182 177 168 164 164 167 172 176
210 211 214 216 214 212 210 210 209 207 205 203 202 205 206 208 210 208 204 201 202 205 204 200 196 196 193 184 179 173 170 175 175 176 180 177 172 170 167 167 173 178
212 212 214 217 216 214 213 213 213 211 209 208 207 208 209 211 212 213 211 206 206 209 210 209 205 206 204 193 189 182 174 179 182 178 177 178 177 177 175 174 175 177
212 213 214 217 218 217 215 215 217 215 213 212 211 211 212 214 216 218 217 213 211 211 213 214 213 215 214 206 203 198 185 184 189 186 183 182 182 183 183 183 183 183
211 213 215 217 219 220 219 217 219 219 216 215 215 214 214 215 217 221 222 218 214 213 215 219 219 219 220 217 215 212 203 199 200 199 197 195 191 190 190 190 191 190
212 214 216 218 220 222 222 220 220 220 219 217 216 217 217 216 217 220 223 222 219 216 217 221 225 225 225 226 224 222 218 215 214 213 211 211 207 203 202 201 197 195
211 214 217 219 221 223 224 223 222 222 222 220 218 219 220 219 219 220 223 226 225 222 219 221 226 228 229 231 232 230 227 225 225 224 223 224 221 218 219 216 211 207
209 211 217 219 221 223 224 225 225 223 224 223 221 222 223 223 223 223 223 226 228 227 225 224 225 227 230 234 235 235 233 232 232 231 231 232 231 230 232 229 227 225
211 210 215 217 220 224 224 226 227 226 225 225 224 225 225 225 226 226 227 228 229 230 230 230 229 227 230 234 237 238 238 237 236 237 237 237 237 237 238 238 236 235
217 215 216 217 218 221 224 226 229 230 229 226 226 228 228 228 228 228 230 230 230 232 234 235 236 235 234 235 236 238 240 239 239 241 243 242 243 244 244 244 245 243
223 220 219 220 220 220 222 225 228 232 232 229 228 229 230 232 232 231 232 232 232 233 235 237 240 241 241 239 237 238 240 242 242 244 247 246 246 249 249 248 249 249
226 225 223 223 223 221 220 223 226 230 232 232 230 229 229 232 234 233 233 233 233 234 235 238 240 242 244 243 241 239 239 240 241 243 248 249 249 251 253 253 253 252
225 226 227 227 224 221 220 223 225 227 230 233 232 231 230 231 233 234 234 234 234 235 236 238 239 241 243 244 243 242 241 240 241 241 245 247 248 251 253 255 257 257
225 223 225 225 224 224 224 226 226 226 230 232 233 234 233 232 233 234 233 232 233 234 236 238 240 241 242 243 243 243 243 243 242 242 244 246 247 248 251 253 256 257
225 224 225 224 223 223 226 228 228 228 230 231 232 235 235 234 233 234 235 234 233 234 236 238 240 242 242 242 243 243 244 245 245 245 245 246 247 248 249 252 254 255
225 226 227 227 226 225 226 227 228 229 231 232 232 233 234 235 235 235 236 236 236 236 237 238 240 243 243 242 242 243 243 244 247 248 249 249 250 251 251 251 253 255
226 227 227 228 229 229 229 229 227 226 229 232 234 235 236 236 237 238 239 239 239 239 240 241 242 244 245 243 241 241 243 245 247 249 251 252 253 254 255 255 256 257
226 227 227 227 228 230 233 236 235 231 228 227 231 235 238 240 239 240 242 243 244 244 244 244 245 247 249 248 243 240 241 244 247 249 252 254 256 257 258 259 259 259
225 226 226 227 227 228 231 236 241 243 239 232 228 229 234 239 242 243 244 245 246 248 249 249 249 251 253 253 249 244 243 245 247 250 252 253 255 257 258 259 259 260
225 225 225 226 227 227 229 232 236 241 244 242 238 234 230 233 237 241 244 247 249 250 252 253 253 254 256 257 255 251 250 250 250 251 253 253 254 254 256 257 258 259
226 226 226 227 227 228 231 234 235 237 241 244 245 245 241 236 234 233 236 242 248 250 252 254 255 254 256 258 258 255 253 252 252 253 254 255 255 255 255 256 256 257
230 229 228 228 229 229 230 232 234 237 242 245 246 247 249 250 248 243 240 240 244 248 251 253 255 255 256 257 257 256 254 252 253 254 255 257 257 258 258 257 255 255
234 233 232 232 232 231 231 233 235 238 242 245 247 248 249 252 253 252 250 248 246 247 249 251 253 254 255 255 255 255 256 255 255 256 256 257 258 258 258 258 257 257
235 235 236 237 236 235 233 235 238 240 241 242 245 248 250 250 250 249 249 250 250 250 249 248 249 250 252 254 253 253 253 254 255 255 256 257 258 258 259 259 259 259
242 240 240 241 240 239 237 236 235 235 236 239 241 244 247 249 251 252 251 250 249 250 250 249 247 247 249 251 252 251 251 252 253 254 256 257 259 260 260 261 261 262